DW8453 Bekkjarvik NO current weather conditions

sailwx.info

Wind from 202 at 7 knots gusting 11

Air temperature 10.0° C
Dewpoint 8.1° C

Last reported at 2017-May-25 08:08 UTC.
Time now 2017-May-25 08:33 UTC

Location: N 60°01' E 005°12'.
View on Google Maps.

See reports from other nearby stations

  
Tides and Currents Weather Stations Pressure Air Temp Water Temp Dewpoint Dewpoint Depression Visibility Wind Speed Wind Dir Waves Ship Positions
date/time (UTC)wind fromknots sea level pressurealtimeterstation pressurevisibilityair tempwater tempwave heightnotes
2017-May-25 08:08 202 7 gusting 11 10.0
2017-May-25 08:03 213 10 gusting 11 10.6
2017-May-25 07:58 189 9 gusting 10 10.6
2017-May-25 07:53 202 9 gusting 10 10.6
2017-May-25 07:48 202 8 gusting 10 10.0
2017-May-25 07:43 189 8 gusting 8 10.0
2017-May-25 07:38 195 8 gusting 8 10.0
2017-May-25 07:33 216 10 gusting 10 10.0
2017-May-25 07:28 182 7 gusting 7 10.0
2017-May-25 07:23 178 7 gusting 11 10.0
2017-May-25 07:18 174 10 gusting 17 10.0
2017-May-25 07:13 202 12 gusting 17 10.0
2017-May-25 07:08 193 11 gusting 13 10.0
2017-May-25 07:03 193 10 gusting 8 10.0
2017-May-25 06:58 180 11 gusting 12 10.0
2017-May-25 06:53 177 10 gusting 13 10.0
2017-May-25 06:48 195 11 gusting 17 10.0
2017-May-25 06:43 176 13 gusting 14 10.0
2017-May-25 06:38 187 12 gusting 13 10.0
2017-May-25 06:33 202 11 gusting 12 10.0
2017-May-25 06:28 180 11 gusting 11 10.6
2017-May-25 06:23 185 11 gusting 11 10.6
2017-May-25 06:18 202 12 gusting 12 10.6
2017-May-25 06:13 192 9 gusting 13 10.6
2017-May-25 06:08 169 12 gusting 12 10.6
2017-May-25 06:03 184 13 gusting 13 10.0
2017-May-25 05:53 171 12 gusting 13 10.0
2017-May-25 05:48 178 11 gusting 13 10.0
2017-May-25 05:43 185 10 gusting 13 10.0
2017-May-25 05:38 191 14 gusting 14 10.0
2017-May-25 05:33 172 8 gusting 13 10.0
2017-May-25 05:28 189 11 gusting 11 10.0
2017-May-25 05:23 174 12 gusting 13 10.0
2017-May-25 05:18 175 10 gusting 11 10.0
2017-May-25 05:13 179 9 gusting 10 10.0
2017-May-25 05:08 182 10 gusting 10 10.0
2017-May-25 05:03 180 10 gusting 11 10.0
2017-May-25 04:58 171 8 gusting 8 10.0
2017-May-25 04:53 175 9 gusting 10 10.0
2017-May-25 04:48 168 5 gusting 8 10.0
2017-May-25 04:43 202 6 gusting 6 10.0
2017-May-25 04:38 157 5 gusting 7 10.0
2017-May-25 04:33 196 8 gusting 10 10.0
2017-May-25 04:28 211 9 gusting 10 10.0
2017-May-25 04:23 187 7 gusting 6 9.4
2017-May-25 04:18 209 5 gusting 6 9.4
2017-May-25 04:13 195 9 gusting 8 9.4
2017-May-25 04:08 181 9 gusting 8 9.4
2017-May-25 04:03 216 7 gusting 7 9.4
2017-May-25 03:58 202 7 gusting 7 9.4
2017-May-25 03:48 219 6 gusting 6 9.4
2017-May-25 03:43 193 6 gusting 6 9.4
2017-May-25 03:38 157 6 gusting 7 9.4
2017-May-25 03:33 165 6 gusting 7 9.4
2017-May-25 03:28 148 6 gusting 6 9.4
2017-May-25 03:23 156 6 gusting 6 9.4
2017-May-25 03:18 158 7 gusting 7 9.4
2017-May-25 03:13 174 6 gusting 6 9.4
2017-May-25 03:08 140 7 gusting 6 9.4
2017-May-25 02:58 167 6 gusting 6 9.4
2017-May-25 02:53 147 6 gusting 6 9.4
2017-May-25 02:48 158 6 gusting 6 9.4
2017-May-25 02:43 165 6 gusting 6 9.4
2017-May-25 02:38 144 7 gusting 6 9.4
2017-May-25 02:33 156 5 gusting 5 9.4
2017-May-25 02:28 159 6 gusting 6 9.4
2017-May-25 02:23 146 6 gusting 5 9.4
2017-May-25 02:18 152 2 gusting 2 9.4
2017-May-25 02:08 180 4 gusting 4 9.4
2017-May-25 02:03 164 2 gusting 4 9.4
2017-May-25 01:58 183 4 gusting 4 9.4
2017-May-25 01:53 180 4 gusting 4 9.4
2017-May-25 01:48 149 2 gusting 4 9.4
2017-May-25 01:43 153 1 gusting 1 9.4
2017-May-25 01:38 171 1 gusting 1 9.4
2017-May-25 01:33 141 1 gusting 1 9.4
2017-May-25 01:28 180 2 gusting 2 9.4
2017-May-25 01:23 158 1 gusting 2 9.4
2017-May-25 01:18 180 2 gusting 2 9.4
2017-May-25 01:13 180 2 gusting 1 9.4
2017-May-25 01:08 163 2 gusting 2 9.4
2017-May-25 01:03 158 0 gusting 2 9.4
2017-May-25 00:58 180 3 gusting 4 9.4
2017-May-25 00:53 248 1 gusting 1 9.4
2017-May-25 00:48 248 0 gusting 1 9.4
2017-May-25 00:43 248 2 gusting 1 9.4
2017-May-25 00:38 248 0 gusting 0 9.4
2017-May-25 00:33 248 1 gusting 0 9.4
2017-May-25 00:28 248 0 gusting 0 9.4
2017-May-25 00:23 248 0 gusting 0 9.4
2017-May-25 00:18 248 9.4
2017-May-25 00:13 248 1 gusting 5 9.4
2017-May-25 00:08 292 2 gusting 4 9.4
2017-May-25 00:03 307 3 gusting 5 9.4
2017-May-24 23:58 292 2 gusting 4 9.4
2017-May-24 23:53 289 1 gusting 4 9.4
2017-May-24 23:48 302 2 gusting 2 9.4
2017-May-24 23:43 288 2 gusting 4 9.4
2017-May-24 23:38 282 2 gusting 4 9.4
2017-May-24 23:33 289 4 gusting 5 9.4
2017-May-24 23:28 267 5 gusting 6 9.4
2017-May-24 23:23 286 2 gusting 4 9.4
2017-May-24 23:18 310 2 gusting 5 9.4
2017-May-24 23:13 274 3 gusting 5 9.4
2017-May-24 23:08 314 2 gusting 5 9.4
2017-May-24 23:03 294 2 gusting 4 9.4
2017-May-24 22:58 291 4 gusting 4 9.4
2017-May-24 22:53 308 4 gusting 5 9.4
2017-May-24 22:48 294 6 gusting 6 9.4
2017-May-24 22:43 310 2 gusting 4 9.4
2017-May-24 22:38 304 4 gusting 4 9.4
2017-May-24 22:33 315 4 gusting 5 9.4
2017-May-24 22:28 311 6 gusting 5 9.4
2017-May-24 22:23 283 4 gusting 4 9.4
2017-May-24 22:13 282 2 gusting 4 9.4
2017-May-24 22:08 301 4 gusting 4 9.4
2017-May-24 22:03 300 5 gusting 5 9.4
2017-May-24 21:58 279 4 gusting 6 9.4
2017-May-24 21:53 268 5 gusting 5 9.4
2017-May-24 21:48 277 3 gusting 5 9.4
2017-May-24 21:43 315 3 gusting 4 9.4
2017-May-24 21:38 292 2 gusting 4 9.4
2017-May-24 21:33 302 3 gusting 5 9.4
2017-May-24 21:28 279 5 gusting 6 9.4
2017-May-24 21:23 305 4 gusting 5 9.4
2017-May-24 21:18 299 5 gusting 6 9.4
2017-May-24 21:13 310 5 gusting 5 9.4
2017-May-24 21:08 284 5 gusting 5 9.4
2017-May-24 21:03 314 5 gusting 6 9.4
2017-May-24 20:58 305 4 gusting 5 9.4
2017-May-24 20:53 312 5 gusting 5 9.4
2017-May-24 20:48 310 4 gusting 4 9.4
2017-May-24 20:43 315 2 gusting 4 9.4
2017-May-24 20:38 320 3 gusting 6 9.4
2017-May-24 20:33 303 5 gusting 5 9.4
2017-May-24 20:28 305 5 gusting 6 9.4
2017-May-24 20:23 310 6 gusting 5 9.4
2017-May-24 20:18 315 5 gusting 6 9.4
2017-May-24 20:13 292 6 gusting 8 10.0
2017-May-24 20:08 294 5 gusting 5 10.0
2017-May-24 20:03 311 5 gusting 6 10.0
2017-May-24 19:58 309 5 gusting 5 10.0
2017-May-24 19:53 331 5 gusting 6 10.6
2017-May-24 19:48 311 5 gusting 5 10.6
2017-May-24 19:43 320 2 gusting 4 11.1
2017-May-24 19:38 305 4 gusting 5 11.1
2017-May-24 19:33 347 4 gusting 4 11.1
2017-May-24 19:28 310 5 gusting 5 11.1
2017-May-24 19:23 319 6 gusting 6 11.1
2017-May-24 19:18 330 5 gusting 6 11.7
2017-May-24 19:13 318 4 gusting 6 11.7
2017-May-24 19:08 311 5 gusting 6 12.2
2017-May-24 19:03 340 4 gusting 6 12.8
2017-May-24 18:58 326 7 gusting 7 13.3
2017-May-24 18:53 322 7 gusting 7 13.9
2017-May-24 18:48 343 5 gusting 6 13.9
2017-May-24 18:43 320 5 gusting 6 13.3
2017-May-24 18:38 340 4 gusting 5 12.8
2017-May-24 18:33 301 6 gusting 6 12.2
2017-May-24 18:28 300 4 gusting 6 12.2
2017-May-24 18:23 315 6 gusting 6 12.2
2017-May-24 18:18 315 5 gusting 6 12.8
2017-May-24 18:13 315 6 gusting 6 13.9
2017-May-24 18:08 311 5 gusting 6 14.4
2017-May-24 18:03 301 7 gusting 7 14.4
2017-May-24 17:58 331 6 gusting 6 13.3
2017-May-24 17:53 288 5 gusting 6 13.3
2017-May-24 17:48 322 7 gusting 7 13.3
2017-May-24 17:43 336 6 gusting 7 13.9
2017-May-24 17:38 313 6 gusting 6 13.3
2017-May-24 17:33 318 7 gusting 8 13.3
2017-May-24 17:28 346 6 gusting 7 13.9
2017-May-24 17:23 316 5 gusting 6 13.3
2017-May-24 17:18 291 5 gusting 6 12.2
2017-May-24 17:13 310 5 gusting 6 12.2
2017-May-24 17:08 314 6 gusting 7 12.2
2017-May-24 17:03 292 6 gusting 6 12.2
2017-May-24 16:58 296 6 gusting 7 12.2
2017-May-24 16:53 313 6 gusting 7 12.8
2017-May-24 16:48 304 6 gusting 7 12.8
2017-May-24 16:43 321 5 gusting 6 12.8
2017-May-24 16:38 302 7 gusting 8 12.8
2017-May-24 16:33 278 5 gusting 7 12.8
2017-May-24 16:28 311 6 gusting 6 12.8
2017-May-24 16:23 339 6 gusting 6 12.8
2017-May-24 16:18 299 4 gusting 5 12.8
2017-May-24 16:13 275 6 gusting 6 12.8
2017-May-24 16:08 304 6 gusting 6 12.8
2017-May-24 16:03 275 4 gusting 5 12.8
2017-May-24 15:58 308 4 gusting 5 12.8
2017-May-24 15:53 309 5 gusting 6 12.8
2017-May-24 15:48 307 6 gusting 6 12.8
2017-May-24 15:43 308 5 gusting 6 12.8
2017-May-24 15:38 303 4 gusting 6 12.8
2017-May-24 15:33 322 5 gusting 5 12.8
2017-May-24 15:28 295 7 gusting 7 12.8
2017-May-24 15:23 309 7 gusting 6 12.8
2017-May-24 15:18 057 6 gusting 7 12.8
2017-May-24 15:13 319 6 gusting 6 12.8
2017-May-24 15:08 312 4 gusting 7 12.8
2017-May-24 15:03 337 6 gusting 8 12.8
2017-May-24 14:58 291 7 gusting 8 12.8
2017-May-24 14:53 318 7 gusting 7 12.8
2017-May-24 14:48 309 7 gusting 8 12.2
2017-May-24 14:43 315 10 gusting 8 12.8
2017-May-24 14:38 308 6 gusting 10 12.8
2017-May-24 14:33 302 6 gusting 8 12.8
2017-May-24 14:28 300 9 gusting 10 12.8
2017-May-24 14:23 289 7 gusting 8 12.8
2017-May-24 14:18 293 7 gusting 8 12.8
2017-May-24 14:13 318 6 gusting 7 12.8
2017-May-24 14:08 305 7 gusting 7 12.8
2017-May-24 14:03 311 7 gusting 8 12.8
2017-May-24 13:58 296 7 gusting 6 13.3
2017-May-24 13:53 314 7 gusting 7 13.3
2017-May-24 13:48 341 4 gusting 7 13.3
2017-May-24 13:43 304 6 gusting 7 13.3
2017-May-24 13:38 317 4 gusting 7 13.3
2017-May-24 13:33 315 4 gusting 6 13.3
2017-May-24 13:28 311 6 gusting 8 13.3
2017-May-24 13:23 332 6 gusting 10 12.8
2017-May-24 13:18 298 8 gusting 10 12.8
2017-May-24 13:13 329 6 gusting 10 12.8
2017-May-24 13:08 274 9 gusting 10 12.8
2017-May-24 13:03 257 8 gusting 8 13.3
2017-May-24 12:58 275 7 gusting 7 13.3
2017-May-24 12:53 303 8 gusting 8 12.8
2017-May-24 12:48 315 6 gusting 8 12.8
2017-May-24 12:43 301 7 gusting 7 13.3
2017-May-24 12:38 306 6 gusting 6 13.3
2017-May-24 12:33 285 7 gusting 6 12.8
2017-May-24 12:28 005 6 gusting 6 12.8
2017-May-24 12:23 352 5 gusting 6 12.8
2017-May-24 12:18 338 4 gusting 5 12.2
2017-May-24 12:13 250 4 gusting 6 12.2
2017-May-24 12:08 308 5 gusting 6 12.8
2017-May-24 12:03 311 5 gusting 5 12.8
2017-May-24 11:58 322 5 gusting 6 12.8
2017-May-24 11:53 309 3 gusting 5 12.8
2017-May-24 11:48 336 4 gusting 5 12.8
2017-May-24 11:43 315 6 gusting 6 12.8
2017-May-24 11:38 315 4 gusting 5 12.8
2017-May-24 11:33 348 5 gusting 5 12.8
2017-May-24 11:28 277 5 gusting 5 12.8
2017-May-24 11:23 321 5 gusting 6 12.2
2017-May-24 11:18 322 4 gusting 6 12.2
2017-May-24 11:13 350 5 gusting 6 12.2
2017-May-24 11:08 322 5 gusting 6 12.2
2017-May-24 11:03 309 6 gusting 6 12.2
2017-May-24 10:58 337 7 gusting 6 12.2
2017-May-24 10:53 322 6 gusting 6 12.2
2017-May-24 10:43 314 5 gusting 6 12.2
2017-May-24 10:38 311 6 gusting 6 12.2
2017-May-24 10:33 317 6 gusting 6 12.2
2017-May-24 10:28 315 6 gusting 6 12.2
2017-May-24 10:23 328 5 gusting 7 11.7
2017-May-24 10:18 306 3 gusting 4 11.7
2017-May-24 10:13 313 4 gusting 6 11.7
2017-May-24 10:08 290 5 gusting 6 11.7
2017-May-24 10:03 296 6 gusting 7 11.7
2017-May-24 09:58 294 6 gusting 6 11.7
2017-May-24 09:53 322 6 gusting 6 11.7
2017-May-24 09:48 300 6 gusting 7 11.7
2017-May-24 09:43 335 5 gusting 6 11.7
2017-May-24 09:38 320 6 gusting 7 12.2
2017-May-24 09:33 335 5 gusting 6 12.2
2017-May-24 09:28 273 5 gusting 5 12.2
2017-May-24 09:23 272 5 gusting 6 12.2
2017-May-24 09:18 284 7 gusting 6 11.7
2017-May-24 09:13 287 6 gusting 6 11.7
2017-May-24 09:08 331 5 gusting 6 11.7
2017-May-24 09:03 334 6 gusting 6 11.7
2017-May-24 08:58 317 5 gusting 6 11.7
2017-May-24 08:53 350 3 gusting 5 11.7
2017-May-24 08:48 341 4 gusting 5 11.1
2017-May-24 08:43 324 3 gusting 6 11.1
2017-May-24 08:38 307 6 gusting 7 11.1
2017-May-24 08:33 328 7 gusting 7 11.1
2017-May-24 08:28 297 6 gusting 6 11.1
2017-May-24 08:23 294 4 gusting 6 11.1
2017-May-24 08:18 295 5 gusting 7 11.1
2017-May-24 08:13 055 6 gusting 6 11.1
2017-May-24 08:08 324 5 gusting 7 11.1
2017-May-24 08:03 317 8 gusting 8 11.1
2017-May-24 07:58 308 7 gusting 7 11.1
2017-May-24 07:53 319 8 gusting 7 11.1
2017-May-24 07:48 285 6 gusting 6 11.1
2017-May-24 07:43 309 6 gusting 6 11.7
2017-May-24 07:38 302 6 gusting 6 11.7
2017-May-24 07:33 278 6 gusting 6 11.7
2017-May-24 07:28 270 5 gusting 5 11.7
2017-May-24 07:23 280 5 gusting 5 11.7
2017-May-24 07:18 285 5 gusting 6 11.7
2017-May-24 07:13 275 3 gusting 6 11.7
2017-May-24 07:08 327 2 gusting 5 11.7
2017-May-24 07:03 294 4 gusting 5 11.7
2017-May-24 06:58 288 4 gusting 5 11.1
2017-May-24 06:53 343 4 gusting 5 11.1
2017-May-24 06:48 352 4 gusting 5 11.1
2017-May-24 06:43 299 5 gusting 5 11.1
2017-May-24 06:38 313 4 gusting 6 10.6
2017-May-24 06:33 338 2 gusting 4 10.6
2017-May-24 06:28 334 5 gusting 6 10.6
2017-May-24 06:23 343 5 gusting 6 10.6
2017-May-24 06:18 357 5 gusting 5 10.6
2017-May-24 06:13 309 2 gusting 4 10.0
2017-May-24 06:08 307 5 gusting 5 10.0
2017-May-24 06:03 315 4 gusting 4 10.0
2017-May-24 05:58 333 5 gusting 6 10.0
2017-May-24 05:53 331 3 gusting 4 10.0
2017-May-24 05:48 353 3 gusting 5 10.0
2017-May-24 05:43 315 3 gusting 4 9.4
2017-May-24 05:38 340 2 gusting 5 9.4
2017-May-24 05:33 327 3 gusting 2 9.4
2017-May-24 05:28 317 4 gusting 6 9.4
2017-May-24 05:23 334 6 gusting 7 9.4
2017-May-24 05:18 337 6 gusting 8 9.4
2017-May-24 05:13 336 6 gusting 8 9.4
2017-May-24 05:08 296 6 gusting 6 9.4
2017-May-24 05:03 304 6 gusting 7 9.4
2017-May-24 04:58 311 7 gusting 8 9.4
2017-May-24 04:53 313 8 gusting 11 9.4
2017-May-24 04:48 340 7 gusting 8 9.4
2017-May-24 04:43 304 7 gusting 7 9.4
2017-May-24 04:38 317 8 gusting 7 8.9
2017-May-24 04:33 309 8 gusting 10 8.9
2017-May-24 04:28 273 8 gusting 8 8.9
2017-May-24 04:23 315 8 gusting 10 8.9
2017-May-24 04:18 315 11 gusting 12 8.9
2017-May-24 04:13 307 10 gusting 10 8.9
2017-May-24 04:08 320 9 gusting 10 8.9
2017-May-24 04:03 308 10 gusting 11 8.9
2017-May-24 03:58 306 10 gusting 10 8.9
2017-May-24 03:53 314 11 gusting 10 8.9
2017-May-24 03:48 309 8 gusting 10 8.9
2017-May-24 03:43 305 8 gusting 10 8.9
2017-May-24 03:38 298 10 gusting 10 8.9
2017-May-24 03:33 305 7 gusting 8 8.9
2017-May-24 03:28 290 7 gusting 10 8.9
2017-May-24 03:23 311 8 gusting 8 8.9
2017-May-24 03:18 270 8 gusting 10 9.4
2017-May-24 03:13 274 7 gusting 8 9.4
2017-May-24 03:08 296 8 gusting 10 9.4
2017-May-24 03:03 292 8 gusting 10 9.4
2017-May-24 02:58 284 7 gusting 10 9.4
2017-May-24 02:53 297 7 gusting 10 9.4
2017-May-24 02:48 306 8 gusting 10 9.4
2017-May-24 02:43 283 6 gusting 10 9.4
2017-May-24 02:38 298 8 gusting 13 9.4
2017-May-24 02:33 293 10 gusting 11 9.4
2017-May-24 02:28 323 10 gusting 12 9.4
2017-May-24 02:23 303 9 gusting 10 9.4
2017-May-24 02:18 282 10 gusting 12 9.4
2017-May-24 02:13 249 10 gusting 11 9.4
2017-May-24 02:08 296 6 gusting 8 9.4
2017-May-24 01:58 284 10 gusting 12 9.4
2017-May-24 01:53 292 8 gusting 11 9.4
2017-May-24 01:48 310 9 gusting 8 9.4
2017-May-24 01:43 305 10 gusting 10 9.4
2017-May-24 01:38 309 7 gusting 7 9.4
2017-May-24 01:33 289 6 gusting 10 9.4
2017-May-24 01:28 287 6 gusting 7 9.4
2017-May-24 01:23 278 6 gusting 10 10.0
2017-May-24 01:18 271 7 gusting 8 10.0
2017-May-24 01:13 252 6 gusting 6 10.0
2017-May-24 01:08 259 8 gusting 8 10.0
2017-May-24 01:03 252 6 gusting 8 10.0
2017-May-24 00:58 281 6 gusting 7 10.0
2017-May-24 00:53 266 5 gusting 7 10.0
2017-May-24 00:48 268 6 gusting 6 10.0
2017-May-24 00:43 258 6 gusting 6 10.0
2017-May-24 00:38 264 6 gusting 7 10.0
2017-May-24 00:33 273 5 gusting 6 10.0
2017-May-24 00:28 276 8 gusting 8 10.0
2017-May-24 00:23 276 5 gusting 6 10.0
2017-May-24 00:18 283 6 gusting 6 10.0
2017-May-24 00:13 273 6 gusting 6 10.0
2017-May-24 00:08 270 6 gusting 6 10.0
2017-May-24 00:03 265 5 gusting 6 10.0
2017-May-23 23:58 279 6 gusting 6 10.0
2017-May-23 23:53 272 8 gusting 8 10.0
2017-May-23 23:48 261 7 gusting 6 10.0
2017-May-23 23:43 248 4 gusting 6 10.0
2017-May-23 23:38 242 6 gusting 6 10.0
2017-May-23 23:33 240 5 gusting 5 10.0
2017-May-23 23:28 206 4 gusting 6 10.0
2017-May-23 23:23 243 7 gusting 10 10.0
2017-May-23 23:18 215 10 gusting 10 10.0
2017-May-23 23:13 246 6 gusting 8 10.6
2017-May-23 23:08 214 6 gusting 6 10.6
2017-May-23 23:03 200 6 gusting 10 10.6
2017-May-23 22:58 168 7 gusting 12 10.6
2017-May-23 22:53 200 7 gusting 11 10.6
2017-May-23 22:48 193 7 gusting 10 10.6
2017-May-23 22:43 202 8 gusting 10 10.6
2017-May-23 22:38 192 10 gusting 11 10.6
2017-May-23 22:33 180 8 gusting 10 10.6
2017-May-23 22:28 191 11 gusting 12 10.6
2017-May-23 22:23 189 11 gusting 13 10.6
2017-May-23 22:18 204 11 gusting 12 10.6
2017-May-23 22:13 217 9 gusting 11 10.6
2017-May-23 22:08 206 11 gusting 12 10.6
2017-May-23 22:03 206 10 gusting 11 10.6
2017-May-23 21:58 176 13 gusting 13 10.6
2017-May-23 21:53 176 8 gusting 8 10.6
2017-May-23 21:48 190 13 gusting 13 10.6
2017-May-23 21:43 178 13 gusting 13 10.6
2017-May-23 21:38 186 15 gusting 17 10.6
2017-May-23 21:33 205 12 gusting 13 10.6
2017-May-23 21:28 166 11 gusting 13 10.6
2017-May-23 21:23 185 13 gusting 13 10.6
2017-May-23 21:18 218 11 gusting 12 10.6
2017-May-23 21:13 202 13 gusting 13 10.6
2017-May-23 21:08 209 11 gusting 13 10.6
2017-May-23 21:03 213 13 gusting 13 11.1
2017-May-23 20:58 180 10 gusting 11 11.1
2017-May-23 20:53 184 12 gusting 11 11.1
2017-May-23 20:48 182 12 gusting 13 11.1
2017-May-23 20:43 184 12 gusting 12 11.1
2017-May-23 20:38 186 13 gusting 11 11.1
2017-May-23 20:33 206 10 gusting 11 11.1
2017-May-23 20:28 197 13 gusting 14 11.1
2017-May-23 20:23 195 13 gusting 13 11.1
2017-May-23 20:18 207 12 gusting 13 11.1
2017-May-23 20:13 188 15 gusting 15 11.1
2017-May-23 20:08 197 14 gusting 14 11.1
2017-May-23 20:03 196 15 gusting 14 11.7
2017-May-23 19:58 202 12 gusting 13 11.7
2017-May-23 19:53 193 12 gusting 13 11.7
2017-May-23 19:48 198 13 gusting 15 11.7
2017-May-23 19:43 196 13 gusting 13 11.7
2017-May-23 19:38 206 14 gusting 15 11.7
2017-May-23 19:33 180 15 gusting 15 11.7
2017-May-23 19:28 176 14 gusting 14 11.7
2017-May-23 19:23 163 13 gusting 13 12.2
2017-May-23 19:18 158 12 gusting 11 12.2
2017-May-23 19:13 161 13 gusting 13 12.2
2017-May-23 19:08 159 12 gusting 12 12.2
2017-May-23 19:03 152 8 gusting 11 12.2
2017-May-23 18:58 213 10 gusting 15 12.2
2017-May-23 18:53 180 14 gusting 14 12.8
2017-May-23 18:48 184 17 gusting 15 12.8
2017-May-23 18:43 180 13 gusting 13 12.8
2017-May-23 18:38 191 13 gusting 13 12.8
2017-May-23 18:33 187 12 gusting 14 12.8
2017-May-23 18:28 177 10 gusting 13 12.8
2017-May-23 18:23 170 11 gusting 13 12.8
2017-May-23 18:18 169 8 gusting 10 12.8
2017-May-23 18:13 170 11 gusting 13 12.8
2017-May-23 18:08 143 10 gusting 10 12.8
2017-May-23 18:03 182 11 gusting 12 12.8
2017-May-23 17:58 189 15 gusting 15 12.8
2017-May-23 17:53 192 15 gusting 14 12.8
2017-May-23 17:48 181 13 gusting 13 12.8
2017-May-23 17:43 184 13 gusting 13 12.8
2017-May-23 17:38 178 14 gusting 14 12.8
2017-May-23 17:33 211 12 gusting 14 12.8
2017-May-23 17:28 177 13 gusting 14 12.8
2017-May-23 17:23 185 15 gusting 15 12.8
2017-May-23 17:18 193 13 gusting 13 13.3
2017-May-23 17:13 198 13 gusting 13 13.3
2017-May-23 17:08 208 13 gusting 13 13.9
2017-May-23 17:03 186 13 gusting 14 13.9
2017-May-23 16:58 212 15 gusting 14 13.3
2017-May-23 16:53 201 12 gusting 14 13.3
2017-May-23 16:48 181 14 gusting 13 13.3
2017-May-23 16:43 181 13 gusting 13 13.3
2017-May-23 16:38 193 11 gusting 13 13.3
2017-May-23 16:33 179 12 gusting 13 13.3
2017-May-23 16:28 186 12 gusting 14 13.3
2017-May-23 16:23 174 13 gusting 13 13.3
2017-May-23 16:18 194 13 gusting 13 13.3
2017-May-23 16:13 203 14 gusting 13 13.9
2017-May-23 16:08 192 13 gusting 14 13.9
2017-May-23 16:03 176 13 gusting 13 13.9
2017-May-23 15:58 184 15 gusting 17 13.9
2017-May-23 15:53 177 13 gusting 17 13.9
2017-May-23 15:48 213 14 gusting 14 13.9
2017-May-23 15:43 183 15 gusting 15 13.9
2017-May-23 15:38 193 17 gusting 19 13.9
2017-May-23 15:33 202 19 gusting 18 14.4
2017-May-23 15:28 201 19 gusting 18 14.4
2017-May-23 15:23 207 17 gusting 17 14.4
2017-May-23 15:18 221 15 gusting 15 15.0
2017-May-23 15:13 207 17 gusting 15 15.0
2017-May-23 15:08 210 14 gusting 15 15.0
2017-May-23 15:03 215 16 gusting 14 15.6
2017-May-23 14:58 221 13 gusting 15 15.0
2017-May-23 14:53 223 11 gusting 15 15.0
2017-May-23 14:48 231 16 gusting 14 15.0
2017-May-23 14:43 205 14 gusting 13 15.6
2017-May-23 14:38 229 16 gusting 18 15.6
2017-May-23 14:33 202 17 gusting 18 15.6
2017-May-23 14:28 207 19 gusting 18 16.1
2017-May-23 14:23 225 16 gusting 17 16.7
2017-May-23 14:18 213 17 gusting 19 17.2
2017-May-23 14:13 195 17 gusting 17 17.2
2017-May-23 14:08 217 17 gusting 17 17.2
2017-May-23 14:03 238 14 gusting 19 17.2
2017-May-23 13:58 212 18 gusting 15 17.2
2017-May-23 13:53 197 13 gusting 17 17.2
2017-May-23 13:48 233 18 gusting 17 17.2
2017-May-23 13:43 221 16 gusting 17 17.2
2017-May-23 13:38 225 8 gusting 10 16.7
2017-May-23 13:33 204 12 gusting 14 16.1
2017-May-23 13:28 220 12 gusting 14 15.6
2017-May-23 13:23 221 16 gusting 15 15.6
2017-May-23 13:18 243 17 gusting 14 15.6
2017-May-23 13:13 236 14 gusting 19 15.0
2017-May-23 13:08 213 14 gusting 17 15.0
2017-May-23 13:03 222 20 gusting 18 14.4
2017-May-23 12:58 206 15 gusting 15 14.4
2017-May-23 12:53 244 13 gusting 14 14.4
2017-May-23 12:48 222 11 gusting 13 14.4
2017-May-23 12:43 208 13 gusting 14 14.4
2017-May-23 12:38 222 16 gusting 14 15.0
2017-May-23 12:33 247 15 gusting 13 15.6
2017-May-23 12:28 248 16 gusting 15 15.6
2017-May-23 12:23 229 17 gusting 14 16.7
2017-May-23 12:18 236 14 gusting 13 17.2
2017-May-23 12:13 244 13 gusting 15 18.3
2017-May-23 12:08 221 2 gusting 5 18.9
2017-May-23 12:03 167 2 gusting 2 18.3
2017-May-23 11:58 135 2 gusting 2 17.8
2017-May-23 11:53 120 2 gusting 2 17.8
2017-May-23 11:48 148 1 gusting 1 17.8
2017-May-23 11:43 135 2 gusting 2 17.2
2017-May-23 11:38 121 2 gusting 2 17.8
2017-May-23 11:33 112 4 gusting 4 17.8
2017-May-23 11:28 123 2 gusting 5 17.8
2017-May-23 11:23 140 2 gusting 4 17.8
2017-May-23 11:18 114 2 gusting 2 17.8
2017-May-23 11:13 112 2 gusting 2 18.3
2017-May-23 11:08 135 2 gusting 2 18.3
2017-May-23 11:03 113 3 gusting 4 18.3
2017-May-23 10:58 158 3 gusting 4 17.8
2017-May-23 10:53 163 3 gusting 4 17.8
2017-May-23 10:48 166 4 gusting 4 17.2
2017-May-23 10:43 141 5 gusting 5 17.2
2017-May-23 10:38 138 4 gusting 4 17.8
2017-May-23 10:33 137 5 gusting 6 17.8
2017-May-23 10:28 168 5 gusting 4 17.8
2017-May-23 10:23 168 5 gusting 5 17.8
2017-May-23 10:18 136 5 gusting 6 17.8
2017-May-23 10:13 147 6 gusting 6 17.8
2017-May-23 10:08 124 7 gusting 7 17.8
2017-May-23 10:03 112 6 gusting 7 17.8
2017-May-23 09:58 152 6 gusting 6 17.2
2017-May-23 09:53 117 6 gusting 6 17.8
2017-May-23 09:48 167 5 gusting 6 17.2
2017-May-23 09:43 121 7 gusting 6 17.2
2017-May-23 09:38 146 6 gusting 5 16.7
2017-May-23 09:33 146 6 gusting 6 16.7
2017-May-23 09:28 156 5 gusting 6 16.1
2017-May-23 09:23 150 5 gusting 5 16.1
2017-May-23 09:18 152 5 gusting 6 16.1
2017-May-23 09:13 139 6 gusting 6 16.1
2017-May-23 09:08 131 6 gusting 7 16.1
2017-May-23 09:03 132 7 gusting 7 16.1
2017-May-23 08:58 144 5 gusting 7 16.1
2017-May-23 08:53 133 6 gusting 10 16.1
2017-May-23 08:48 125 9 gusting 10 15.6
2017-May-23 08:43 102 7 gusting 7 15.6
2017-May-23 08:38 149 6 gusting 7 15.6
2017-May-23 08:33 148 7 gusting 8 15.6
2017-May-23 08:28 122 6 gusting 7 15.6
2017-May-23 08:23 118 9 gusting 8 16.1
2017-May-23 08:18 144 10 gusting 8 16.1
2017-May-23 08:13 135 7 gusting 8 15.6
2017-May-23 08:08 170 6 gusting 7 15.0
2017-May-23 08:03 145 8 gusting 7 15.0